CFG1BY EDDF-LIRF

Flight info

Callsign CFG1BY
Flight time 1h 18m
Altitude 35000
Route CINDY3L CINDY Z74 LAMPU DCT NOMBO Y161 RIDAR DCT KONIN DCT BERAS DCT LIKDA DCT BAKOR DCT GAVRA DCT RITEB
Aircraft A321/M-SDE3FGHIRWY/LB1

Departure

Time 2026-04-16 10:24
Airport Frankfurt Main Airport (EDDF)

Arrival

Time 2026-04-16 11:43
Airport Rome–Fiumicino Leonardo da Vinci International Airport (LIRF)
Time Latitude Longitude Altitude Speed Heading
2026-04-16 10:01 50.04851 8.56951 356 ft 0 kts 295°
2026-04-16 10:13 50.04850 8.56953 356 ft 1 kts 295°
2026-04-16 10:13 50.04843 8.56977 362 ft 3 kts 293°
2026-04-16 10:13 50.04835 8.57005 363 ft 3 kts 295°
2026-04-16 10:14 50.04829 8.57032 363 ft 3 kts 267°
2026-04-16 10:14 50.04833 8.57057 363 ft 3 kts 224°
2026-04-16 10:14 50.04845 8.57071 364 ft 1 kts 205°
2026-04-16 10:14 50.04841 8.57068 362 ft 2 kts 205°
2026-04-16 10:15 50.04823 8.57056 361 ft 3 kts 205°
2026-04-16 10:15 50.04805 8.57043 359 ft 3 kts 205°
2026-04-16 10:15 50.04796 8.57036 359 ft 0 kts 205°
2026-04-16 10:17 50.04795 8.57036 359 ft 2 kts 205°
2026-04-16 10:18 50.04731 8.56990 362 ft 19 kts 204°
2026-04-16 10:18 50.04569 8.56898 363 ft 26 kts 192°
2026-04-16 10:18 50.04402 8.56844 362 ft 24 kts 188°
2026-04-16 10:18 50.04246 8.56766 363 ft 25 kts 235°
2026-04-16 10:19 50.04185 8.56523 360 ft 16 kts 249°
2026-04-16 10:19 50.04167 8.56445 363 ft 4 kts 250°
2026-04-16 10:19 50.04156 8.56401 361 ft 7 kts 250°
2026-04-16 10:19 50.04124 8.56262 358 ft 18 kts 250°
2026-04-16 10:20 50.04079 8.56076 359 ft 20 kts 249°
2026-04-16 10:20 50.04016 8.55811 355 ft 30 kts 250°
2026-04-16 10:20 50.03946 8.55512 356 ft 29 kts 250°
2026-04-16 10:20 50.03877 8.55225 357 ft 28 kts 250°
2026-04-16 10:21 50.03811 8.54946 354 ft 27 kts 249°
2026-04-16 10:21 50.03747 8.54671 352 ft 27 kts 250°
2026-04-16 10:21 50.03680 8.54397 347 ft 27 kts 248°
2026-04-16 10:21 50.03613 8.54126 351 ft 26 kts 250°
2026-04-16 10:22 50.03548 8.53862 336 ft 26 kts 249°
2026-04-16 10:22 50.03506 8.53689 336 ft 26 kts 250°
2026-04-16 10:22 50.03446 8.53433 334 ft 25 kts 250°
2026-04-16 10:22 50.03390 8.53179 332 ft 25 kts 249°
2026-04-16 10:23 50.03327 8.52933 332 ft 24 kts 249°
2026-04-16 10:23 50.03268 8.52691 334 ft 23 kts 240°
2026-04-16 10:23 50.03081 8.52595 335 ft 52 kts 180°
2026-04-16 10:23 50.02493 8.52600 335 ft 114 kts 179°
2026-04-16 10:24 50.01531 8.52610 332 ft 160 kts 179°
2026-04-16 10:24 50.00307 8.52624 506 ft 183 kts 181°
2026-04-16 10:24 49.99033 8.52634 1178 ft 182 kts 180°
2026-04-16 10:24 49.97762 8.52750 1760 ft 185 kts 168°
2026-04-16 10:25 49.96548 8.53631 1921 ft 204 kts 142°
2026-04-16 10:25 49.95642 8.55382 2073 ft 220 kts 120°
2026-04-16 10:25 49.94855 8.57600 2229 ft 243 kts 119°
2026-04-16 10:25 49.94006 8.59984 2727 ft 258 kts 119°
2026-04-16 10:26 49.93129 8.62444 3532 ft 262 kts 119°
2026-04-16 10:26 49.92238 8.64936 4346 ft 265 kts 120°
2026-04-16 10:26 49.91351 8.67413 5158 ft 268 kts 120°
2026-04-16 10:26 49.90437 8.69950 5935 ft 273 kts 120°
2026-04-16 10:27 49.89501 8.72545 6644 ft 277 kts 120°
2026-04-16 10:27 49.88550 8.75177 7345 ft 281 kts 120°
2026-04-16 10:27 49.87587 8.77841 8032 ft 285 kts 120°
2026-04-16 10:27 49.86613 8.80541 8741 ft 289 kts 120°
2026-04-16 10:28 49.85623 8.83273 9447 ft 292 kts 120°
2026-04-16 10:28 49.84617 8.86037 10154 ft 296 kts 120°
2026-04-16 10:28 49.83593 8.88848 10583 ft 309 kts 120°
2026-04-16 10:28 49.82505 8.91852 10720 ft 332 kts 120°
2026-04-16 10:29 49.81341 8.95071 10836 ft 353 kts 119°
2026-04-16 10:29 49.80111 8.98464 11110 ft 367 kts 120°
2026-04-16 10:29 49.78846 9.01932 11670 ft 372 kts 120°
2026-04-16 10:29 49.77561 9.05446 12295 ft 376 kts 120°
2026-04-16 10:30 49.76368 9.09078 12909 ft 381 kts 112°
2026-04-16 10:30 49.75580 9.13006 13533 ft 385 kts 103°
2026-04-16 10:30 49.74770 9.16968 14122 ft 389 kts 114°
2026-04-16 10:30 49.73480 9.20640 14656 ft 391 kts 125°
2026-04-16 10:31 49.71769 9.23921 15207 ft 393 kts 132°
2026-04-16 10:31 49.69947 9.27108 15760 ft 396 kts 132°
2026-04-16 10:31 49.68123 9.30315 16296 ft 399 kts 132°
2026-04-16 10:31 49.66281 9.33561 16823 ft 402 kts 132°
2026-04-16 10:32 49.64438 9.36817 17336 ft 405 kts 132°
2026-04-16 10:32 49.62526 9.40050 17827 ft 408 kts 137°
2026-04-16 10:32 49.60352 9.42774 18315 ft 410 kts 147°
2026-04-16 10:32 49.57917 9.45057 18769 ft 412 kts 150°
2026-04-16 10:33 49.55442 9.47314 19188 ft 415 kts 150°
2026-04-16 10:33 49.52954 9.49585 19602 ft 417 kts 150°
2026-04-16 10:33 49.50440 9.51880 20020 ft 420 kts 150°
2026-04-16 10:33 49.47911 9.54179 20422 ft 423 kts 150°
2026-04-16 10:34 49.45365 9.56485 20822 ft 426 kts 150°
2026-04-16 10:34 49.42802 9.58808 21225 ft 429 kts 150°
2026-04-16 10:34 49.40225 9.61149 21608 ft 432 kts 150°
2026-04-16 10:34 49.37619 9.63517 22020 ft 435 kts 150°
2026-04-16 10:35 49.35025 9.65935 22415 ft 438 kts 146°
2026-04-16 10:35 49.32640 9.68874 22793 ft 442 kts 136°
2026-04-16 10:35 49.30453 9.72223 23175 ft 446 kts 135°
2026-04-16 10:35 49.28256 9.75596 23568 ft 448 kts 135°
2026-04-16 10:36 49.26041 9.78981 23927 ft 451 kts 135°
2026-04-16 10:36 49.23814 9.82378 24231 ft 454 kts 135°
2026-04-16 10:36 49.21570 9.85789 24543 ft 456 kts 135°
2026-04-16 10:36 49.19306 9.89224 24852 ft 459 kts 135°
2026-04-16 10:37 49.17061 9.92628 25142 ft 462 kts 135°
2026-04-16 10:37 49.14773 9.96088 25450 ft 464 kts 135°
2026-04-16 10:37 49.12472 9.99564 25746 ft 467 kts 135°
2026-04-16 10:37 49.10158 10.03058 26052 ft 469 kts 135°
2026-04-16 10:38 49.07829 10.06573 26352 ft 471 kts 135°
2026-04-16 10:38 49.05495 10.10085 26631 ft 474 kts 135°
2026-04-16 10:38 49.03109 10.13570 26931 ft 476 kts 136°
2026-04-16 10:38 49.00676 10.17022 27214 ft 478 kts 137°
2026-04-16 10:39 48.98217 10.20444 27503 ft 481 kts 137°
2026-04-16 10:39 48.95733 10.23880 27774 ft 483 kts 137°
2026-04-16 10:39 48.93244 10.27335 28059 ft 485 kts 136°
2026-04-16 10:39 48.90760 10.30811 28338 ft 488 kts 136°
2026-04-16 10:40 48.88255 10.34334 28615 ft 490 kts 136°
2026-04-16 10:40 48.85766 10.37842 28971 ft 489 kts 136°
2026-04-16 10:40 48.83272 10.41366 29358 ft 489 kts 135°
2026-04-16 10:40 48.80830 10.44953 29706 ft 488 kts 133°
2026-04-16 10:41 48.78470 10.48645 30077 ft 487 kts 131°
2026-04-16 10:41 48.76167 10.52413 30420 ft 487 kts 131°
2026-04-16 10:41 48.73887 10.56208 30720 ft 487 kts 130°
2026-04-16 10:41 48.71605 10.59988 31028 ft 486 kts 130°
2026-04-16 10:42 48.69307 10.63733 31334 ft 486 kts 131°
2026-04-16 10:42 48.66981 10.67456 31647 ft 486 kts 131°
2026-04-16 10:42 48.64645 10.71147 31941 ft 486 kts 131°
2026-04-16 10:42 48.62303 10.74827 32243 ft 485 kts 131°
2026-04-16 10:43 48.59882 10.78384 32535 ft 487 kts 138°
2026-04-16 10:43 48.57194 10.81405 32817 ft 489 kts 146°
2026-04-16 10:43 48.54220 10.83909 33101 ft 490 kts 151°
2026-04-16 10:43 48.51193 10.86266 33373 ft 490 kts 151°
2026-04-16 10:44 48.48161 10.88626 33637 ft 491 kts 151°
2026-04-16 10:44 48.45132 10.90986 33918 ft 491 kts 151°
2026-04-16 10:44 48.42094 10.93355 34194 ft 491 kts 151°
2026-04-16 10:44 48.39057 10.95726 34431 ft 491 kts 150°
2026-04-16 10:45 48.36017 10.98097 34677 ft 491 kts 150°
2026-04-16 10:45 48.32983 11.00460 34935 ft 490 kts 150°
2026-04-16 10:45 48.29953 11.02810 35181 ft 490 kts 151°
2026-04-16 10:45 48.26923 11.05149 35262 ft 489 kts 150°
2026-04-16 10:46 48.20888 11.09787 35275 ft 487 kts 150°
2026-04-16 10:46 48.14868 11.14416 35279 ft 486 kts 150°
2026-04-16 10:47 48.08848 11.19053 35274 ft 486 kts 150°
2026-04-16 10:47 48.02834 11.23672 35273 ft 486 kts 150°
2026-04-16 10:48 47.96807 11.28276 35278 ft 486 kts 150°
2026-04-16 10:48 47.90775 11.32859 35279 ft 486 kts 150°
2026-04-16 10:49 47.84748 11.37440 35294 ft 486 kts 149°
2026-04-16 10:49 47.78789 11.42202 35292 ft 486 kts 147°
2026-04-16 10:50 47.72895 11.47095 35290 ft 485 kts 147°
2026-04-16 10:50 47.66997 11.51965 35291 ft 485 kts 147°
2026-04-16 10:51 47.61086 11.56759 35280 ft 485 kts 148°
2026-04-16 10:51 47.55195 11.61487 35280 ft 484 kts 148°
2026-04-16 10:52 47.49277 11.66237 35280 ft 484 kts 147°
2026-04-16 10:52 47.43365 11.70988 35280 ft 483 kts 147°
2026-04-16 10:53 47.37253 11.75160 35269 ft 488 kts 160°
2026-04-16 10:53 47.30521 11.76659 35260 ft 493 kts 179°
2026-04-16 10:54 47.23653 11.76255 35256 ft 494 kts 181°
2026-04-16 10:54 47.16790 11.75888 35243 ft 493 kts 180°
2026-04-16 10:55 47.09927 11.75524 35240 ft 494 kts 180°
2026-04-16 10:55 47.03066 11.75161 35238 ft 494 kts 180°
2026-04-16 10:56 46.96203 11.74789 35223 ft 493 kts 180°
2026-04-16 10:56 46.89341 11.74408 35215 ft 493 kts 180°
2026-04-16 10:57 46.82497 11.74029 35195 ft 493 kts 180°
2026-04-16 10:57 46.75638 11.73659 35193 ft 493 kts 180°
2026-04-16 10:58 46.68789 11.73286 35200 ft 492 kts 180°
2026-04-16 10:58 46.61958 11.72922 35190 ft 491 kts 180°
2026-04-16 10:59 46.55150 11.72834 35187 ft 489 kts 177°
2026-04-16 10:59 46.48353 11.73180 35174 ft 488 kts 175°
2026-04-16 11:00 46.41605 11.73566 35175 ft 488 kts 176°
2026-04-16 11:00 46.34829 11.73836 35250 ft 486 kts 177°
2026-04-16 11:01 46.28054 11.74038 35174 ft 486 kts 177°
2026-04-16 11:01 46.21298 11.74251 35170 ft 484 kts 177°
2026-04-16 11:02 46.14566 11.74481 35164 ft 483 kts 177°
2026-04-16 11:02 46.07857 11.74733 35166 ft 481 kts 177°
2026-04-16 11:03 46.01159 11.74973 35173 ft 481 kts 177°
2026-04-16 11:04 45.91138 11.75321 35170 ft 480 kts 178°
2026-04-16 11:04 45.84507 11.75546 35170 ft 479 kts 178°
2026-04-16 11:05 45.77853 11.75765 35177 ft 478 kts 178°
2026-04-16 11:05 45.71209 11.76001 35177 ft 477 kts 178°
2026-04-16 11:06 45.64574 11.76234 35175 ft 476 kts 178°
2026-04-16 11:06 45.57950 11.76463 35180 ft 475 kts 178°
2026-04-16 11:07 45.51347 11.76689 35184 ft 474 kts 178°
2026-04-16 11:07 45.44748 11.76915 35190 ft 473 kts 178°
2026-04-16 11:08 45.38173 11.77145 35196 ft 473 kts 178°
2026-04-16 11:08 45.32710 11.77327 35197 ft 472 kts 178°
2026-04-16 11:09 45.25071 11.77585 35199 ft 471 kts 178°
2026-04-16 11:09 45.19589 11.77773 35204 ft 470 kts 178°
2026-04-16 11:10 45.13089 11.78004 35208 ft 469 kts 178°
2026-04-16 11:10 45.06572 11.78229 35213 ft 468 kts 178°
2026-04-16 11:11 45.00060 11.78445 35210 ft 467 kts 178°
2026-04-16 11:11 44.93579 11.78654 35209 ft 466 kts 178°
2026-04-16 11:12 44.87115 11.78868 35203 ft 464 kts 178°
2026-04-16 11:12 44.80653 11.79081 35203 ft 464 kts 178°
2026-04-16 11:13 44.74212 11.79294 35199 ft 462 kts 178°
2026-04-16 11:13 44.67784 11.79518 35201 ft 461 kts 178°
2026-04-16 11:14 44.61371 11.79733 35207 ft 460 kts 179°
2026-04-16 11:14 44.54978 11.79942 35206 ft 459 kts 179°
2026-04-16 11:15 44.48589 11.80142 35202 ft 458 kts 179°
2026-04-16 11:15 44.42218 11.80350 35200 ft 457 kts 179°
2026-04-16 11:16 44.35863 11.80567 34984 ft 458 kts 179°
2026-04-16 11:16 44.32724 11.80676 34607 ft 457 kts 179°
2026-04-16 11:16 44.29540 11.80786 34249 ft 457 kts 179°
2026-04-16 11:16 44.26358 11.80893 33849 ft 458 kts 179°
2026-04-16 11:17 44.23167 11.80997 33442 ft 460 kts 179°
2026-04-16 11:17 44.19963 11.81096 33044 ft 461 kts 179°
2026-04-16 11:17 44.16751 11.81193 32650 ft 463 kts 179°
2026-04-16 11:17 44.13529 11.81294 32259 ft 464 kts 179°
2026-04-16 11:18 44.10291 11.81400 31874 ft 466 kts 178°
2026-04-16 11:18 44.07041 11.81502 31494 ft 468 kts 179°
2026-04-16 11:18 44.03779 11.81605 31123 ft 470 kts 178°
2026-04-16 11:18 44.00506 11.81714 30752 ft 472 kts 178°
2026-04-16 11:19 43.97214 11.81826 30386 ft 473 kts 178°
2026-04-16 11:19 43.93914 11.81940 29989 ft 475 kts 178°
2026-04-16 11:19 43.90601 11.82051 29572 ft 477 kts 178°
2026-04-16 11:19 43.87280 11.82161 29152 ft 478 kts 178°
2026-04-16 11:20 43.83941 11.82276 28734 ft 479 kts 178°
2026-04-16 11:20 43.80614 11.82385 28332 ft 477 kts 178°
2026-04-16 11:20 43.77317 11.82682 27933 ft 474 kts 171°
2026-04-16 11:20 43.74097 11.83584 27537 ft 471 kts 166°
2026-04-16 11:21 43.70910 11.84611 27151 ft 468 kts 166°
2026-04-16 11:21 43.67750 11.85626 26767 ft 465 kts 166°
2026-04-16 11:21 43.64607 11.86632 26383 ft 462 kts 166°
2026-04-16 11:21 43.61485 11.87627 26014 ft 459 kts 166°
2026-04-16 11:22 43.58377 11.88613 25646 ft 456 kts 166°
2026-04-16 11:22 43.55299 11.89591 25282 ft 453 kts 166°
2026-04-16 11:22 43.52268 11.90554 24925 ft 451 kts 166°
2026-04-16 11:22 43.49219 11.91520 24572 ft 448 kts 166°
2026-04-16 11:23 43.46198 11.92477 24222 ft 445 kts 166°
2026-04-16 11:23 43.43189 11.93432 23876 ft 442 kts 166°
2026-04-16 11:23 43.40201 11.94377 23501 ft 439 kts 166°
2026-04-16 11:23 43.37235 11.95311 23088 ft 435 kts 166°
2026-04-16 11:24 43.34302 11.96231 22685 ft 431 kts 166°
2026-04-16 11:24 43.31391 11.97143 22286 ft 427 kts 166°
2026-04-16 11:24 43.28502 11.98053 21892 ft 424 kts 166°
2026-04-16 11:24 43.25637 11.98960 21501 ft 421 kts 166°
2026-04-16 11:25 43.22794 11.99860 21116 ft 418 kts 166°
2026-04-16 11:25 43.19964 12.00754 20734 ft 415 kts 167°
2026-04-16 11:25 43.17158 12.01639 20355 ft 413 kts 166°
2026-04-16 11:25 43.14369 12.02515 19989 ft 410 kts 166°
2026-04-16 11:26 43.11595 12.03384 19627 ft 408 kts 167°
2026-04-16 11:26 43.08871 12.04233 19272 ft 406 kts 166°
2026-04-16 11:26 43.06125 12.05087 18917 ft 404 kts 166°
2026-04-16 11:26 43.03390 12.05938 18564 ft 403 kts 166°
2026-04-16 11:27 43.00667 12.06787 18194 ft 401 kts 166°
2026-04-16 11:27 42.97952 12.07632 17784 ft 399 kts 166°
2026-04-16 11:27 42.95259 12.08472 17387 ft 396 kts 166°
2026-04-16 11:27 42.92581 12.09309 16995 ft 393 kts 166°
2026-04-16 11:28 42.89926 12.10140 16607 ft 391 kts 166°
2026-04-16 11:28 42.87285 12.10968 16227 ft 388 kts 166°
2026-04-16 11:28 42.84662 12.11790 16076 ft 386 kts 166°
2026-04-16 11:28 42.82080 12.12589 16097 ft 372 kts 166°
2026-04-16 11:29 42.79608 12.13344 16097 ft 355 kts 166°
2026-04-16 11:29 42.77251 12.14066 16098 ft 339 kts 166°
2026-04-16 11:29 42.75000 12.14760 16093 ft 326 kts 165°
2026-04-16 11:29 42.72806 12.15437 16045 ft 323 kts 165°
2026-04-16 11:30 42.70610 12.16112 15626 ft 324 kts 167°
2026-04-16 11:30 42.68362 12.16424 15183 ft 326 kts 176°
2026-04-16 11:30 42.66087 12.16511 14747 ft 327 kts 176°
2026-04-16 11:30 42.63805 12.16600 14319 ft 329 kts 176°
2026-04-16 11:31 42.61513 12.16688 13891 ft 330 kts 176°
2026-04-16 11:31 42.59215 12.16776 13421 ft 331 kts 176°
2026-04-16 11:31 42.56907 12.16864 12943 ft 332 kts 176°
2026-04-16 11:31 42.54603 12.16951 12529 ft 330 kts 176°
2026-04-16 11:32 42.52351 12.17039 12195 ft 327 kts 176°
2026-04-16 11:32 42.50093 12.17127 11874 ft 323 kts 176°
2026-04-16 11:32 42.47860 12.17217 11544 ft 319 kts 176°
2026-04-16 11:32 42.45644 12.17306 11220 ft 316 kts 176°
2026-04-16 11:33 42.43457 12.17393 10892 ft 312 kts 176°
2026-04-16 11:33 42.41298 12.17477 10586 ft 309 kts 175°
2026-04-16 11:33 42.39152 12.17562 10271 ft 307 kts 176°
2026-04-16 11:33 42.37030 12.17647 9953 ft 303 kts 176°
2026-04-16 11:34 42.34934 12.17729 9607 ft 300 kts 175°
2026-04-16 11:34 42.32865 12.17809 9278 ft 296 kts 176°
2026-04-16 11:34 42.30821 12.17889 8942 ft 292 kts 176°
2026-04-16 11:34 42.28796 12.17968 8602 ft 290 kts 176°
2026-04-16 11:35 42.26789 12.18045 8272 ft 286 kts 176°
2026-04-16 11:35 42.24804 12.18124 7949 ft 284 kts 176°
2026-04-16 11:35 42.22835 12.18201 7619 ft 282 kts 176°
2026-04-16 11:35 42.20885 12.18276 7308 ft 281 kts 176°
2026-04-16 11:36 42.18955 12.18351 7085 ft 280 kts 176°
2026-04-16 11:36 42.17017 12.18426 6779 ft 277 kts 176°
2026-04-16 11:36 42.15076 12.18502 6475 ft 274 kts 176°
2026-04-16 11:36 42.13174 12.18577 6150 ft 272 kts 176°
2026-04-16 11:37 42.11298 12.18652 5840 ft 269 kts 176°
2026-04-16 11:37 42.09459 12.18727 5528 ft 267 kts 177°
2026-04-16 11:37 42.07597 12.18801 5214 ft 269 kts 177°
2026-04-16 11:37 42.05724 12.18872 4906 ft 269 kts 177°
2026-04-16 11:38 42.03861 12.18940 4587 ft 265 kts 177°
2026-04-16 11:38 42.02050 12.19016 4209 ft 254 kts 174°
2026-04-16 11:38 42.00370 12.19497 3847 ft 241 kts 162°
2026-04-16 11:38 41.98812 12.20162 3488 ft 230 kts 161°
2026-04-16 11:39 41.97314 12.20806 3115 ft 223 kts 161°
2026-04-16 11:39 41.95871 12.21415 2771 ft 214 kts 162°
2026-04-16 11:39 41.94507 12.21988 2400 ft 196 kts 162°
2026-04-16 11:39 41.93254 12.22516 2041 ft 183 kts 163°
2026-04-16 11:40 41.92090 12.23005 1788 ft 169 kts 163°
2026-04-16 11:40 41.90989 12.23467 1572 ft 163 kts 164°
2026-04-16 11:40 41.89916 12.23918 1357 ft 161 kts 163°
2026-04-16 11:40 41.88853 12.24363 924 ft 159 kts 165°
2026-04-16 11:41 41.87795 12.24810 717 ft 159 kts 165°
2026-04-16 11:41 41.86751 12.25263 546 ft 155 kts 166°
2026-04-16 11:41 41.85739 12.25702 320 ft 153 kts 165°
2026-04-16 11:41 41.84729 12.26110 103 ft 150 kts 167°
2026-04-16 11:42 41.83757 12.26493 25 ft 134 kts 162°
2026-04-16 11:42 41.83040 12.26802 21 ft 81 kts 162°
2026-04-16 11:42 41.82623 12.26974 20 ft 55 kts 162°
2026-04-16 11:42 41.82256 12.27115 14 ft 54 kts 166°
2026-04-16 11:43 41.81942 12.27104 14 ft 29 kts 192°
2026-04-16 11:43 41.81776 12.27058 18 ft 22 kts 190°
2026-04-16 11:43 41.81631 12.27068 20 ft 22 kts 164°
2026-04-16 11:43 41.81482 12.27130 22 ft 22 kts 162°
2026-04-16 11:44 41.81337 12.27191 18 ft 23 kts 162°
2026-04-16 11:44 41.81183 12.27256 16 ft 23 kts 163°
2026-04-16 11:44 41.81028 12.27319 14 ft 23 kts 163°
2026-04-16 11:44 41.80874 12.27342 15 ft 22 kts 187°
2026-04-16 11:45 41.80724 12.27306 14 ft 21 kts 198°
2026-04-16 11:45 41.80636 12.27164 14 ft 20 kts 250°
2026-04-16 11:45 41.80588 12.26987 15 ft 20 kts 251°
2026-04-16 11:45 41.80545 12.26825 17 ft 17 kts 250°
2026-04-16 11:46 41.80507 12.26687 15 ft 14 kts 249°
2026-04-16 11:46 41.80469 12.26552 16 ft 17 kts 252°
2026-04-16 11:46 41.80419 12.26372 14 ft 24 kts 249°
2026-04-16 11:46 41.80372 12.26204 16 ft 11 kts 244°
2026-04-16 11:47 41.80363 12.26182 16 ft 0 kts 242°
2026-04-16 11:47 41.80350 12.26151 16 ft 10 kts 237°
2026-04-16 11:47 41.80258 12.26062 15 ft 21 kts 204°
2026-04-16 11:47 41.80182 12.26100 15 ft 7 kts 112°
2026-04-16 11:48 41.80204 12.26135 15 ft 4 kts 25°
2026-04-16 11:48 41.80227 12.26149 15 ft 5 kts 25°
2026-04-16 11:48 41.80234 12.26154 17 ft 1 kts 25°